Location: Aalen
(48.8330°N, 10.1000°E)
Time: 18:29:22
(UTC+02:00)

Tiros 1 - Visible Passes

Search period start: 28 July 2021 00:00
Search period end: 07 August 2021 00:00
Orbit: 630 x 663 km, 48.4° (Epoch: 27 July)

Date Brightness Start Highest point End Pass type
(mag) Time Alt. Az. Time Alt. Az. Time Alt. Az.
28 Jul 7.0 00:44:48 10° W 00:49:31 78° S 00:50:56 45° ESE visible
28 Jul 8.9 02:27:07 10° W 02:28:31 18° W 02:28:31 18° W visible
28 Jul 7.2 21:46:30 10° WSW 21:51:10 59° SSE 21:55:49 10° E visible
28 Jul 7.0 23:28:32 10° W 23:33:18 87° S 23:37:13 15° E visible
29 Jul 7.3 01:10:47 10° W 01:14:48 54° SW 01:14:48 54° SW visible
29 Jul 7.1 22:12:18 10° WSW 22:17:03 78° S 22:21:46 10° E visible
29 Jul 7.0 23:54:31 10° W 23:59:15 80° S 00:01:16 34° ESE visible
30 Jul 8.7 01:36:49 10° W 01:38:53 23° W 01:38:53 23° W visible
30 Jul 7.1 22:38:15 10° W 22:43:02 87° S 22:47:44 10° E visible
31 Jul 7.1 00:20:30 10° W 00:25:10 62° SSW 00:25:26 60° S visible
31 Jul 7.0 23:04:14 10° W 23:09:00 81° S 23:12:03 22° ESE visible
01 Aug 8.1 00:46:32 10° W 00:49:40 33° WSW 00:49:40 33° WSW visible
01 Aug 7.2 21:47:59 10° W 21:52:45 86° S 21:57:30 10° E visible
01 Aug 7.1 23:30:13 10° W 23:34:55 64° SSW 23:36:21 41° SE visible
02 Aug 9.2 01:12:49 10° W 01:13:58 15° W 01:13:58 15° W visible
02 Aug 7.1 22:13:58 10° W 22:18:44 83° S 22:23:03 12° E visible
02 Aug 7.6 23:56:15 10° W 00:00:41 42° SSW 00:00:41 42° SSW visible
03 Aug 7.2 22:39:56 10° W 22:44:40 66° SSW 22:47:26 24° ESE visible
04 Aug 8.7 00:22:29 10° W 00:25:03 22° WSW 00:25:03 22° WSW visible
04 Aug 7.2 21:23:40 10° W 21:28:28 84° S 21:33:12 10° E visible
04 Aug 7.6 23:05:57 10° W 23:10:28 45° SSW 23:11:50 35° SSE visible
05 Aug 7.2 21:49:39 10° W 21:54:24 69° SSW 21:58:40 12° ESE visible
05 Aug 8.3 23:32:09 10° W 23:36:08 27° SW 23:36:18 27° SSW visible
06 Aug 7.6 22:15:39 10° W 22:20:14 47° SSW 22:23:09 20° SE visible
